Time,TemperatureF,DewpointF,PressureIn,WindDirection,WindDirectionDegrees,WindSpeedMPH,WindSpeedGustMPH,Humidity,HourlyPrecipIn,Conditions,Clouds,dailyrainin,SoftwareType,DateUTC
2013-04-29 00:03:00,53.0,36.0,30.20,SSE,152,0.0,2.0,52,0.00,,,0.00,,2013-04-29 04:03:00,
2013-04-29 00:13:00,53.0,36.0,30.20,SSE,152,0.0,2.0,52,0.00,,,0.00,,2013-04-29 04:13:00,
2013-04-29 00:23:00,53.0,36.0,30.20,ESE,118,0.0,3.0,53,0.00,,,0.00,,2013-04-29 04:23:00,
2013-04-29 00:33:00,52.0,36.0,30.20,WSW,244,0.0,3.0,55,0.00,,,0.00,,2013-04-29 04:33:00,
2013-04-29 00:43:00,52.0,36.0,30.20,WSW,244,0.0,3.0,55,0.00,,,0.00,,2013-04-29 04:43:00,
2013-04-29 00:52:00,52.0,36.0,30.20,WSW,244,0.0,0.0,55,0.00,,,0.00,,2013-04-29 04:52:00,
2013-04-29 01:02:00,52.0,37.0,30.20,WSW,244,0.0,0.0,56,0.00,,,0.00,,2013-04-29 05:02:00,
2013-04-29 01:12:00,52.0,37.0,30.20,WSW,244,0.0,0.0,56,0.00,,,0.00,,2013-04-29 05:12:00,
2013-04-29 01:22:00,52.0,37.0,30.20,WSW,244,0.0,0.0,56,0.00,,,0.00,,2013-04-29 05:22:00,
2013-04-29 01:32:00,52.0,37.0,30.20,WSW,244,0.0,1.0,57,0.00,,,0.00,,2013-04-29 05:32:00,
2013-04-29 01:42:00,52.0,37.0,30.20,WSW,244,0.0,1.0,57,0.00,,,0.00,,2013-04-29 05:42:00,
2013-04-29 01:52:00,52.0,37.0,30.19,WSW,244,0.0,0.0,57,0.00,,,0.00,,2013-04-29 05:52:00,
2013-04-29 02:02:00,52.0,38.0,30.19,WNW,283,0.0,4.0,59,0.00,,,0.00,,2013-04-29 06:02:00,
2013-04-29 02:11:00,52.0,38.0,30.19,WNW,283,0.0,4.0,59,0.00,,,0.00,,2013-04-29 06:11:00,
2013-04-29 02:21:00,52.0,39.0,30.19,WNW,283,0.0,1.0,60,0.00,,,0.00,,2013-04-29 06:21:00,
2013-04-29 02:32:00,52.0,40.0,30.18,SSE,165,0.0,3.0,63,0.00,,,0.00,,2013-04-29 06:32:00,
2013-04-29 02:42:00,52.0,40.0,30.18,SSE,165,0.0,3.0,63,0.00,,,0.00,,2013-04-29 06:42:00,
2013-04-29 02:52:00,52.0,40.0,30.18,SE,137,0.0,2.0,64,0.00,,,0.00,,2013-04-29 06:52:00,
2013-04-29 03:01:00,52.0,41.0,30.17,SSW,202,0.0,2.0,66,0.00,,,0.00,,2013-04-29 07:01:00,
2013-04-29 03:11:00,52.0,41.0,30.17,SSW,202,0.0,2.0,66,0.00,,,0.00,,2013-04-29 07:11:00,
2013-04-29 03:21:00,52.0,41.0,30.17,West,273,1.0,3.0,66,0.00,,,0.00,,2013-04-29 07:21:00,
2013-04-29 03:32:00,52.0,42.0,30.17,SE,126,0.0,3.0,69,0.00,,,0.00,,2013-04-29 07:32:00,
2013-04-29 03:42:00,52.0,42.0,30.17,SE,126,0.0,3.0,69,0.00,,,0.00,,2013-04-29 07:42:00,
2013-04-29 03:52:00,52.0,43.0,30.17,ESE,111,0.0,3.0,70,0.00,,,0.00,,2013-04-29 07:52:00,
2013-04-29 04:03:00,52.0,43.0,30.17,SSW,213,0.0,0.0,71,0.00,,,0.00,,2013-04-29 08:03:00,
2013-04-29 04:11:00,52.0,43.0,30.17,SSW,213,0.0,0.0,71,0.00,,,0.00,,2013-04-29 08:11:00,
2013-04-29 04:21:00,52.0,43.0,30.17,SSW,213,0.0,0.0,71,0.00,,,0.00,,2013-04-29 08:21:00,
2013-04-29 04:32:00,52.0,43.0,30.17,SW,226,0.0,3.0,72,0.00,,,0.00,,2013-04-29 08:32:00,
2013-04-29 04:42:00,52.0,43.0,30.17,SW,226,0.0,3.0,72,0.00,,,0.00,,2013-04-29 08:42:00,
2013-04-29 04:51:00,51.0,42.0,30.17,SW,229,0.0,1.0,72,0.00,,,0.00,,2013-04-29 08:51:00,
2013-04-29 05:01:00,51.0,43.0,30.17,SW,229,0.0,3.0,73,0.00,,,0.00,,2013-04-29 09:01:00,
2013-04-29 05:12:00,51.0,43.0,30.17,SW,229,0.0,3.0,73,0.00,,,0.00,,2013-04-29 09:12:00,
2013-04-29 05:21:00,51.0,43.0,30.17,SW,229,0.0,1.0,74,0.00,,,0.00,,2013-04-29 09:21:00,
2013-04-29 05:33:00,51.0,43.0,30.17,SW,229,0.0,0.0,74,0.00,,,0.00,,2013-04-29 09:33:00,
2013-04-29 05:42:00,51.0,43.0,30.17,SW,229,0.0,0.0,74,0.00,,,0.00,,2013-04-29 09:42:00,
2013-04-29 05:52:00,51.0,43.0,30.17,SW,229,0.0,1.0,75,0.00,,,0.00,,2013-04-29 09:52:00,
2013-04-29 06:02:00,51.0,44.0,30.18,SW,229,0.0,1.0,76,0.00,,,0.00,,2013-04-29 10:02:00,
2013-04-29 06:12:00,51.0,44.0,30.18,SW,229,0.0,1.0,76,0.00,,,0.00,,2013-04-29 10:12:00,
2013-04-29 06:23:00,51.0,44.0,30.18,SW,229,0.0,0.0,77,0.00,,,0.00,,2013-04-29 10:23:00,
2013-04-29 06:32:00,51.0,44.0,30.18,SW,229,0.0,0.0,78,0.00,,,0.00,,2013-04-29 10:32:00,
2013-04-29 06:42:00,51.0,44.0,30.18,SW,229,0.0,0.0,78,0.00,,,0.00,,2013-04-29 10:42:00,
2013-04-29 06:52:00,51.0,44.0,30.18,East,80,0.0,1.0,78,0.00,,,0.00,,2013-04-29 10:52:00,
2013-04-29 07:03:00,51.0,45.0,30.19,ESE,115,0.0,3.0,80,0.00,,,0.00,,2013-04-29 11:03:00,
2013-04-29 07:12:00,51.0,45.0,30.19,ESE,115,0.0,3.0,80,0.00,,,0.00,,2013-04-29 11:12:00,
2013-04-29 07:21:00,51.0,45.0,30.19,ESE,116,0.0,1.0,81,0.00,,,0.00,,2013-04-29 11:21:00,
2013-04-29 07:32:00,51.0,46.0,30.19,East,79,0.0,3.0,82,0.00,,,0.00,,2013-04-29 11:32:00,
2013-04-29 07:42:00,51.0,46.0,30.19,East,79,0.0,3.0,82,0.00,,,0.00,,2013-04-29 11:42:00,
2013-04-29 07:52:00,51.0,46.0,30.20,ESE,114,1.0,2.0,83,0.01,,,0.01,,2013-04-29 11:52:00,
2013-04-29 08:01:00,51.0,46.0,30.20,ENE,70,1.0,3.0,84,0.01,,,0.01,,2013-04-29 12:01:00,
2013-04-29 08:12:00,51.0,46.0,30.20,ENE,70,1.0,3.0,84,0.01,,,0.01,,2013-04-29 12:12:00,
2013-04-29 08:22:00,51.0,46.0,30.20,SE,139,1.0,4.0,84,0.01,,,0.01,,2013-04-29 12:22:00,
2013-04-29 08:32:00,51.0,46.0,30.20,East,85,1.0,3.0,84,0.01,,,0.02,,2013-04-29 12:32:00,
2013-04-29 08:42:00,51.0,46.0,30.20,East,85,1.0,3.0,84,0.01,,,0.02,,2013-04-29 12:42:00,
2013-04-29 08:52:00,51.0,46.0,30.20,WSW,239,0.0,5.0,84,0.01,,,0.00,,2013-04-29 12:52:00,
2013-04-29 09:01:00,52.0,48.0,30.20,South,187,0.0,3.0,85,0.01,,,0.00,,2013-04-29 13:01:00,
2013-04-29 09:11:00,52.0,48.0,30.20,South,187,0.0,3.0,85,0.01,,,0.00,,2013-04-29 13:11:00,
2013-04-29 09:21:00,52.0,48.0,30.20,SE,140,1.0,3.0,85,0.01,,,0.00,,2013-04-29 13:21:00,
2013-04-29 09:32:00,53.0,49.0,30.20,SW,221,0.0,4.0,85,0.00,,,0.00,,2013-04-29 13:32:00,
2013-04-29 09:42:00,53.0,49.0,30.20,SW,221,0.0,4.0,85,0.00,,,0.00,,2013-04-29 13:42:00,
2013-04-29 09:52:00,52.0,47.0,30.20,SE,146,0.0,2.0,84,0.00,,,0.00,,2013-04-29 13:52:00,
2013-04-29 10:02:00,52.0,47.0,30.20,NE,44,0.0,4.0,84,0.01,,,0.01,,2013-04-29 14:02:00,
2013-04-29 10:11:00,52.0,47.0,30.20,NE,44,0.0,4.0,84,0.01,,,0.01,,2013-04-29 14:11:00,
2013-04-29 10:21:00,53.0,48.0,30.20,South,182,0.0,4.0,83,0.00,,,0.01,,2013-04-29 14:21:00,
2013-04-29 10:32:00,53.0,47.0,30.20,NE,54,1.0,4.0,81,0.00,,,0.01,,2013-04-29 14:32:00,
2013-04-29 10:42:00,53.0,47.0,30.20,NE,54,1.0,4.0,81,0.00,,,0.01,,2013-04-29 14:42:00,
2013-04-29 10:52:00,53.0,47.0,30.20,SW,219,1.0,5.0,80,0.00,,,0.01,,2013-04-29 14:52:00,
2013-04-29 11:01:00,53.0,47.0,30.20,SSW,210,1.0,5.0,79,0.00,,,0.01,,2013-04-29 15:01:00,
2013-04-29 11:12:00,53.0,47.0,30.20,SSW,210,1.0,5.0,79,0.00,,,0.01,,2013-04-29 15:12:00,
2013-04-29 11:21:00,53.0,47.0,30.20,WSW,254,3.0,10.0,79,0.00,,,0.01,,2013-04-29 15:21:00,
2013-04-29 11:33:00,54.0,47.0,30.20,East,87,3.0,7.0,77,0.00,,,0.01,,2013-04-29 15:33:00,
2013-04-29 11:42:00,54.0,47.0,30.20,East,87,3.0,7.0,77,0.00,,,0.01,,2013-04-29 15:42:00,
2013-04-29 11:53:00,54.0,46.0,30.20,SSW,195,1.0,9.0,75,0.00,,,0.01,,2013-04-29 15:53:00,
2013-04-29 12:03:00,54.0,46.0,30.19,WSW,243,1.0,5.0,74,0.00,,,0.01,,2013-04-29 16:03:00,
2013-04-29 12:12:00,54.0,46.0,30.19,WSW,243,1.0,5.0,74,0.00,,,0.01,,2013-04-29 16:12:00,
2013-04-29 12:23:00,54.0,45.0,30.19,SSE,162,1.0,8.0,72,0.00,,,0.01,,2013-04-29 16:23:00,
2013-04-29 12:33:00,55.0,45.0,30.19,SE,136,0.0,8.0,70,0.00,,,0.01,,2013-04-29 16:33:00,
2013-04-29 12:42:00,55.0,45.0,30.19,SE,136,0.0,8.0,70,0.00,,,0.01,,2013-04-29 16:42:00,
2013-04-29 12:52:00,55.0,45.0,30.18,SSW,213,1.0,6.0,70,0.00,,,0.01,,2013-04-29 16:52:00,
2013-04-29 13:02:00,55.0,45.0,30.19,NE,47,0.0,4.0,70,0.00,,,0.01,,2013-04-29 17:02:00,
2013-04-29 13:12:00,55.0,45.0,30.19,NE,47,0.0,4.0,70,0.00,,,0.01,,2013-04-29 17:12:00,
2013-04-29 13:22:00,55.0,45.0,30.18,SE,136,0.0,3.0,70,0.00,,,0.01,,2013-04-29 17:22:00,
2013-04-29 13:32:00,55.0,45.0,30.18,SE,131,2.0,5.0,70,0.00,,,0.01,,2013-04-29 17:32:00,
2013-04-29 13:42:00,55.0,45.0,30.18,SE,131,2.0,5.0,70,0.00,,,0.01,,2013-04-29 17:42:00,
2013-04-29 13:52:00,55.0,45.0,30.18,ENE,68,2.0,7.0,69,0.00,,,0.01,,2013-04-29 17:52:00,
2013-04-29 14:01:00,55.0,45.0,30.18,WSW,240,1.0,5.0,69,0.00,,,0.01,,2013-04-29 18:01:00,
2013-04-29 14:13:00,55.0,45.0,30.18,WSW,240,1.0,5.0,69,0.00,,,0.01,,2013-04-29 18:13:00,
2013-04-29 14:22:00,55.0,45.0,30.18,SW,217,1.0,7.0,68,0.00,,,0.01,,2013-04-29 18:22:00,
2013-04-29 14:32:00,55.0,44.0,30.18,SW,217,2.0,4.0,67,0.00,,,0.01,,2013-04-29 18:32:00,
2013-04-29 14:42:00,55.0,44.0,30.18,SW,217,2.0,4.0,67,0.00,,,0.01,,2013-04-29 18:42:00,
2013-04-29 14:51:00,55.0,44.0,30.18,East,93,3.0,6.0,66,0.00,,,0.01,,2013-04-29 18:51:00,
2013-04-29 15:01:00,55.0,43.0,30.18,East,81,2.0,7.0,65,0.00,,,0.01,,2013-04-29 19:01:00,
2013-04-29 15:11:00,55.0,43.0,30.18,East,81,2.0,7.0,65,0.00,,,0.01,,2013-04-29 19:11:00,
2013-04-29 15:21:00,55.0,43.0,30.18,ENE,74,1.0,7.0,65,0.00,,,0.01,,2013-04-29 19:21:00,
2013-04-29 15:32:00,55.0,45.0,30.18,SE,135,2.0,7.0,68,0.00,,,0.01,,2013-04-29 19:32:00,
2013-04-29 15:42:00,55.0,45.0,30.18,SE,135,2.0,7.0,68,0.00,,,0.01,,2013-04-29 19:42:00,
2013-04-29 15:52:00,55.0,45.0,30.17,East,93,1.0,5.0,69,0.00,,,0.01,,2013-04-29 19:52:00,
2013-04-29 16:02:00,55.0,45.0,30.17,ESE,114,2.0,6.0,70,0.00,,,0.01,,2013-04-29 20:02:00,
2013-04-29 16:12:00,55.0,45.0,30.17,ESE,114,2.0,6.0,70,0.00,,,0.01,,2013-04-29 20:12:00,
2013-04-29 16:21:00,55.0,46.0,30.17,East,98,0.0,7.0,71,0.00,,,0.01,,2013-04-29 20:21:00,
2013-04-29 16:32:00,55.0,46.0,30.17,ESE,106,2.0,8.0,71,0.00,,,0.01,,2013-04-29 20:32:00,
2013-04-29 16:42:00,55.0,46.0,30.17,ESE,106,2.0,8.0,71,0.00,,,0.01,,2013-04-29 20:42:00,
2013-04-29 16:52:00,54.0,45.0,30.17,NW,309,1.0,4.0,71,0.00,,,0.01,,2013-04-29 20:52:00,
2013-04-29 17:01:00,55.0,46.0,30.17,SSW,199,1.0,4.0,71,0.00,,,0.01,,2013-04-29 21:01:00,
2013-04-29 17:11:00,55.0,46.0,30.17,SSW,199,1.0,4.0,71,0.00,,,0.01,,2013-04-29 21:11:00,
2013-04-29 17:21:00,54.0,45.0,30.17,ENE,72,0.0,7.0,71,0.00,,,0.01,,2013-04-29 21:21:00,
2013-04-29 17:33:00,54.0,45.0,30.17,ESE,107,2.0,6.0,71,0.00,,,0.01,,2013-04-29 21:33:00,
2013-04-29 17:43:00,54.0,45.0,30.17,ESE,107,2.0,6.0,71,0.00,,,0.01,,2013-04-29 21:43:00,
2013-04-29 17:53:00,54.0,45.0,30.16,ESE,104,2.0,6.0,71,0.00,,,0.01,,2013-04-29 21:53:00,
2013-04-29 18:02:00,54.0,44.0,30.16,SE,126,2.0,7.0,70,0.00,,,0.01,,2013-04-29 22:02:00,
2013-04-29 18:13:00,54.0,44.0,30.16,SE,126,2.0,7.0,70,0.00,,,0.01,,2013-04-29 22:13:00,
2013-04-29 18:23:00,54.0,44.0,30.17,North,8,1.0,9.0,70,0.00,,,0.01,,2013-04-29 22:23:00,
2013-04-29 18:32:00,54.0,44.0,30.17,ENE,78,1.0,6.0,68,0.00,,,0.01,,2013-04-29 22:32:00,
2013-04-29 18:42:00,54.0,44.0,30.17,ENE,78,1.0,6.0,68,0.00,,,0.01,,2013-04-29 22:42:00,
2013-04-29 18:52:00,54.0,43.0,30.16,ESE,116,1.0,4.0,67,0.00,,,0.01,,2013-04-29 22:52:00,
2013-04-29 19:02:00,55.0,44.0,30.16,East,87,1.0,5.0,67,0.00,,,0.01,,2013-04-29 23:02:00,
2013-04-29 19:12:00,55.0,44.0,30.16,East,87,1.0,5.0,67,0.00,,,0.01,,2013-04-29 23:12:00,
2013-04-29 19:22:00,55.0,44.0,30.16,ESE,116,1.0,6.0,66,0.00,,,0.01,,2013-04-29 23:22:00,
2013-04-29 19:32:00,54.0,42.0,30.17,ESE,114,2.0,5.0,64,0.00,,,0.01,,2013-04-29 23:32:00,
2013-04-29 19:42:00,54.0,42.0,30.17,ESE,114,2.0,5.0,64,0.00,,,0.01,,2013-04-29 23:42:00,
2013-04-29 19:52:00,54.0,42.0,30.17,ENE,74,0.0,10.0,64,0.00,,,0.01,,2013-04-29 23:52:00,
2013-04-29 20:01:00,54.0,42.0,30.17,ESE,106,2.0,8.0,64,0.00,,,0.01,,2013-04-30 00:01:00,
2013-04-29 20:11:00,54.0,42.0,30.17,ESE,106,2.0,8.0,64,0.00,,,0.01,,2013-04-30 00:11:00,
2013-04-29 20:21:00,54.0,42.0,30.17,SSE,153,0.0,5.0,64,0.00,,,0.01,,2013-04-30 00:21:00,
2013-04-29 20:32:00,54.0,42.0,30.17,SE,140,0.0,2.0,63,0.00,,,0.01,,2013-04-30 00:32:00,
2013-04-29 20:42:00,54.0,42.0,30.17,SE,140,0.0,2.0,63,0.00,,,0.01,,2013-04-30 00:42:00,
2013-04-29 20:51:00,54.0,42.0,30.18,East,93,0.0,7.0,63,0.00,,,0.01,,2013-04-30 00:51:00,
2013-04-29 21:02:00,54.0,41.0,30.18,ENE,71,1.0,5.0,62,0.00,,,0.01,,2013-04-30 01:02:00,
2013-04-29 21:11:00,54.0,41.0,30.18,ENE,71,1.0,5.0,62,0.00,,,0.01,,2013-04-30 01:11:00,
2013-04-29 21:22:00,54.0,41.0,30.19,East,94,0.0,3.0,61,0.00,,,0.01,,2013-04-30 01:22:00,
2013-04-29 21:32:00,53.0,39.0,30.19,ESE,113,0.0,2.0,60,0.00,,,0.01,,2013-04-30 01:32:00,
2013-04-29 21:41:00,53.0,39.0,30.19,ESE,113,0.0,2.0,60,0.00,,,0.01,,2013-04-30 01:41:00,
2013-04-29 21:51:00,53.0,40.0,30.20,East,79,1.0,5.0,61,0.00,,,0.01,,2013-04-30 01:51:00,
2013-04-29 22:01:00,53.0,40.0,30.20,ESE,122,1.0,5.0,62,0.00,,,0.01,,2013-04-30 02:01:00,
2013-04-29 22:11:00,53.0,40.0,30.20,ESE,122,1.0,5.0,62,0.00,,,0.01,,2013-04-30 02:11:00,
2013-04-29 22:21:00,53.0,40.0,30.20,ESE,121,0.0,1.0,62,0.00,,,0.01,,2013-04-30 02:21:00,
2013-04-29 22:31:00,53.0,41.0,30.20,ENE,69,1.0,5.0,64,0.00,,,0.01,,2013-04-30 02:31:00,
2013-04-29 22:41:00,53.0,41.0,30.20,ENE,69,1.0,5.0,64,0.00,,,0.01,,2013-04-30 02:41:00,
2013-04-29 22:51:00,53.0,41.0,30.20,ESE,119,0.0,4.0,64,0.00,,,0.01,,2013-04-30 02:51:00,
2013-04-29 23:01:00,53.0,42.0,30.20,ESE,105,0.0,3.0,65,0.00,,,0.01,,2013-04-30 03:01:00,
2013-04-29 23:11:00,53.0,42.0,30.20,ESE,115,2.0,5.0,65,0.00,,,0.01,,2013-04-30 03:11:00,
2013-04-29 23:21:00,53.0,42.0,30.20,ESE,115,2.0,5.0,65,0.00,,,0.01,,2013-04-30 03:21:00,
2013-04-29 23:33:00,52.0,41.0,30.19,ESE,122,1.0,3.0,66,0.00,,,0.01,,2013-04-30 03:33:00,
2013-04-29 23:42:00,52.0,41.0,30.19,ESE,122,1.0,3.0,66,0.00,,,0.01,,2013-04-30 03:42:00,
2013-04-29 23:52:00,52.0,41.0,30.19,ESE,102,0.0,3.0,66,0.00,,,0.01,,2013-04-30 03:52:00,